Location: *
(1.3500°S, 147.5000°W)
Time: 15:49:38
(UTC+00:00)

IRIDIUM 103 - Pass Details

Date: 07 April 2020
Orbit: 776 x 779 km, 86.4° (Epoch: 26 May)

Event Time Altitude Azimuth Distance (km) Brightness Sun altitude
Rises 05:12:53 0° 11° (N) 3,242 7.5 -20.2°
Reaches altitude 10° 05:15:17 10° 16° (NNE) 2,317 6.7 -20.8°
Enters shadow 05:19:58 48° 78° (ENE) 1,001 4.5 -22.0°
